Location: Beaver Brook Station
(42.3793°N, 71.2203°W)
Time: 00:55:40
(UTC+00:00)

SKYMED 2 - Pass Details

Date: 29 October 2020
Orbit: 621 x 623 km, 97.9° (Epoch: 05 December)

Event Time Altitude Azimuth Distance (km) Brightness Sun altitude
Rises 22:42:55 0° 15° (NNE) 2,913 6.8 -11.9°
Reaches altitude 10° 22:45:07 10° 17° (NNE) 2,001 5.9 -12.3°
Maximum altitude 22:49:28 70° 102° (ESE) 664 3.5 -13.1°
Drops below altitude 10° 22:53:46 10° 186° (S) 1,984 6.3 -13.9°
Sets 22:55:57 0° 189° (S) 2,885 7.2 -14.3°
